Regional Weather Roundup
Issued by NWS Northern Indiana

Home | Current Version | Previous Version | Text Only | Print | Product List | Glossary Off
Versions: 1 2 3 4 5 6 7 8 9 10 11 12 13 14 15 16 17 18 19 20 21 22 23 24 25 26 27 28 29 30 31 32 33 34 35 36 37 38 39 40 41 42 43 44 45 46 47 48 49 50

000
ASUS43 KIWX 290110
RWRIWX

KIWX WEATHER ROUNDUP
NATIONAL WEATHER SERVICE NORTHERN INDIANA
800 PM EST WED JAN 28 2015

NOTE: "FAIR" INDICATES FEW OR NO CLOUDS BELOW 12,000 FEET WITH NO
SIGNIFICANT WEATHER AND/OR OBSTRUCTIONS TO VISIBILITY.

* THESE STATIONS ARE NOT UNDER NWS QUALITY CONTROL. THEY ALSO MAY NOT
  REPORT WEATHER SUCH AS PRECIPITATION OR FOG.

INZ001>027-290200-
NORTHERN INDIANA

CITY           SKY/WX    TMP DP  RH WIND       PRES   REMARKS
GARY*          CLOUDY    34  16  47 SE17G29   30.01F WCI  23
VALPARAISO     CLOUDY    30  20  66 SE15      30.03F WCI  19
MICHIGAN CITY* CLOUDY    30  16  55 SE9G18    30.03F WCI  22
LAPORTE*       CLOUDY    31  22  67 SE12      30.04F WCI  22
KNOX*          CLOUDY    30   8  38 SE17G23   30.05F WCI  18
SOUTH BEND     MOCLDY    28  17  63 SE17      30.07F WCI  16
ELKHART*       MOCLDY    27  12  54 SE14      30.09F WCI  15
GOSHEN         MOCLDY    26  16  65 SE15      30.10F WCI  14
MONTICELLO*    MOCLDY    32  21  65 SE8       30.06F WCI  25
LOGANSPORT*    MOCLDY    30  23  74 SE14      30.09F WCI  20
ROCHESTER*     CLOUDY    32  23  69 SE12      30.09F WCI  23
WARSAW*        MOCLDY    27  19  74 SE9G16    30.11S WCI  17
ANGOLA*        CLEAR     21  14  73 SE10      30.14F WCI  10
FORT WAYNE     MOCLDY    25  17  72 SE10      30.16F WCI  15
HUNTINGTON*    FAIR      26  15  61 SE8       30.13F WCI  18
PERU/GRISSOM   MOCLDY    31  22  69 SE16      30.08F WCI  20
MARION*        MOCLDY    29  20  70 SE10      30.12F WCI  20

$$
INZ028>050-290200-
CENTRAL INDIANA

CITY           SKY/WX    TMP DP  RH WIND       PRES   REMARKS
LAFAYETTE      PTCLDY    33  19  56 SE14G20   30.07F WCI  23
KOKOMO*        PTCLDY    30  21  69 S16G22    30.10F WCI  19
MUNCIE*        MOCLDY    30  19  63 S10       30.14F WCI  21
INDIANAPOLIS   MOCLDY    30  17  58 SE15      30.11F WCI  19

$$
MIZ043>046-050>051-056>058-064>065-071>073-077>080-290200-
SOUTHWEST LOWER MICHIGAN

CITY           SKY/WX    TMP DP  RH WIND       PRES   REMARKS
BATTLE CREEK   MOCLDY    26   9  48 SE12      30.11F WCI  16
BENTON HARBOR  CLOUDY    28  14  55 SE17      30.04F WCI  16
COLDWATER*     MOCLDY    24  13  63 S12G18    30.14S WCI  13
HILLSDALE*     PTCLDY    22  14  70 SE10G17   30.14F WCI  11
HOLLAND        CLOUDY    29  10  45 SE13      30.06F WCI  19
GRAND RAPIDS   CLOUDY    28   6  39 SE9       30.09F WCI  19
KALAMAZOO      MOCLDY    26  11  52 SE10      30.10F WCI  16
STURGIS*       MOCLDY    23  16  74 SE13      30.10F WCI  11
THREE RIVERS*  FAIR      25  15  65 SE8       30.11F WCI  16

$$
OHZ001>008-015>018-024>025-290200-
NORTHWEST OHIO

CITY           SKY/WX    TMP DP  RH WIND       PRES   REMARKS
WAUSEON*       FAIR      23  16  74 SE10      30.20F WCI  12
DEFIANCE       PTCLDY    24  14  65 SE7       30.20F WCI  16
FINDLAY        FAIR      23  13  65 SE10      30.22F WCI  12
TOLEDO EXPRESS PTCLDY    21  14  74 SE6       30.22F WCI  13
TOLEDO METCALF MOCLDY    22  13  68 SE8       30.25F WCI  12
LIMA           PTCLDY    24  15  68 SE14      30.20F WCI  12

$$
AND FOR LAKE MICHIGAN COASTAL AND OPEN LAKE BUOY OBSERVATIONS

STATION/POSITION TEMP    WIND        PRES    VSBY  WAVE
                 AIR SEA DIR/SP/G                  HT/PER
                 (F)     (DEG/KT/KT) (MB)    (MI)  (FT/S)
CALUMET HARBOR    33     140/ 12/ 18   N/A
MICHIGAN CITY     31     130/ 19/ 26   N/A
SAINT JOSEPH      29     150/  3/  9 1017.9F

$$
&&


USA.gov is the U.S. government's official web portal to all federal, state and local government web resources and services.